Location: Unspecified
(0.0000°N, 0.0000°E)
Time: 12:00:44
(UTC+00:00)

Tiros 1 despin weight - Pass Details

Date: 19 December 2018
Orbit: 594 x 642 km, 48.2° (Epoch: 25 March)

Event Time Altitude Azimuth Distance (km) Brightness Sun altitude
Rises 19:46:16 0° 234° (SW) 2,827 ? -24.8°
Reaches altitude 10° 19:48:42 10° 243° (WSW) 1,920 ? -25.4°
Maximum altitude 19:52:42 34° 309° (NW) 969 ? -26.3°
Enters shadow 19:52:50 34° 313° (NW) 970 ? -26.3°
